Trang Airport
VTST : now visible

Airfield :











YOU CAN JOIN US ON...

 
LOGIN :

Register | Disclaimer

   EN    FR    IT 

 









Legend :    VFR   Marginal VFR   IFR   Intensive IFR   Very Intensive IFR
Visi :
Ceiling :
>= 8 km
>= 3000ft
5 to 8 km
1000 to 3000 ft
1500m to 5 km
500 to 1000 ft
800 to 1500m
200 to 500 ft
< 800m
< 200 ft
Symbols :   Thunderstorms  Fog  Heavy snow  Heavy precipitations  Wind > 20 kt






- Airport Elevation : 67 ft
- IATA code : TST


VTST - Trang

CURRENT METAR :
  • 211000Z 19005KT 130V210 9999 FEW030 31/25 Q1007 NOSIG

EXPIRED METARs :
  • 210900Z 20007KT 9999 FEW030 32/25 Q1007 NOSIG
  • 210800Z 18007KT 150V220 9999 FEW030 32/25 Q1007 NOSIG
  • 210700Z 19007KT 160V220 9999 FEW030 31/26 Q1008 NOSIG
  • 210600Z 18003KT 140V220 9999 FEW030 31/25 Q1008 NOSIG

TAF TAF VTST
Valid from the 21 at 06:00 until the 22 at 06:00 UTC


210500Z 2106/2206 20005KT 9999 SCT020
TEMPO 2108/2114 -TSRA FEW018CB SCT020 BKN100
BECMG 2114/2116 12005KT
VTBB FIR / Asia



MET'MAP, your aeronautical weather chart ! - Copyright ORBIFLY December 2007 - Disclaimer

ORBIFLY MET'MAP TEAM :

Programming & Development : Alexandra Zaïnal
Original concept : Baudouin d'Aumeries
Technical & hardware support : Manuel Goepfert
Assistance : Marc-Olivier Méhu




SOURCES & CREDITS :

   NOAA       Earth
Advisory